| time (UTC) | temp F | wind direction | speed MPH | gust MPH | rain 1hr in | rain 24hr in | rain mn in | humidity % | barometer mb |
| 20260904163104 | 66 | 34 | 0.0 | 3.0 | 0.00 | 0.00 | 0.00 | 43 | 1027.7 |
| 20260904162102 | 66 | 8 | 2.0 | 5.0 | 0.00 | 0.00 | 0.00 | 43 | 1027.6 |
| 20260904161103 | 65 | 40 | 1.0 | 9.0 | 0.00 | 0.00 | 0.00 | 43 | 1027.6 |
| 20260904160104 | 65 | 18 | 3.0 | 9.0 | 0.00 | 0.00 | 0.00 | 44 | 1027.5 |
| 20260904154004 | 64 | 360 | 5.0 | 14.0 | 0.00 | 0.00 | 0.00 | 46 | 1027.3 |
| 20260904150803 | 64 | 3 | 7.0 | 12.0 | 0.00 | 0.00 | 0.00 | 46 | 1026.9 |
| 20260904145802 | 63 | 360 | 4.0 | 8.0 | 0.00 | 0.00 | 0.00 | 49 | 1026.8 |
| 20260904144803 | 62 | 88 | 6.0 | 10.0 | 0.00 | 0.00 | 0.00 | 50 | 1026.9 |
| 20260904143803 | 61 | 25 | 3.0 | 0.0 | 0.00 | 0.00 | 0.00 | 56 | 1026.9 |
| 20260904141704 | 60 | 330 | 0.0 | 0.0 | 0.00 | 0.00 | 0.00 | 58 | 1026.7 |
| 20260904140702 | 60 | 330 | 0.0 | 0.0 | 0.00 | 0.00 | 0.00 | 57 | 1026.7 |
| 20260904135703 | 60 | 330 | 0.0 | 0.0 | 0.00 | 0.00 | 0.00 | 56 | 1026.7 |
| 20260904134704 | 60 | 330 | 0.0 | 0.0 | 0.00 | 0.00 | 0.00 | 55 | 1026.4 |
| 20260904133702 | 60 | 330 | 0.0 | 0.0 | 0.00 | 0.00 | 0.00 | 54 | 1026.4 |
| 20260904132703 | 60 | 330 | 0.0 | 0.0 | 0.00 | 0.00 | 0.00 | 53 | 1026.3 |
| 20260904131703 | 60 | 354 | 4.0 | 3.0 | 0.00 | 0.00 | 0.00 | 53 | 1026.0 |
| 20260904125604 | 61 | 360 | 0.0 | 8.0 | 0.00 | 0.00 | 0.00 | 52 | 1025.7 |
| 20260904123504 | 61 | 360 | 0.0 | 7.0 | 0.00 | 0.00 | 0.00 | 51 | 1025.5 |
| 20260904122502 | 61 | 360 | 0.0 | 10.0 | 0.00 | 0.00 | 0.00 | 51 | 1025.5 |
| 20260904121505 | 61 | 360 | 0.0 | 4.0 | 0.00 | 0.00 | 0.00 | 51 | 1025.5 |
| 20260904120504 | 61 | 360 | 0.0 | 3.0 | 0.00 | 0.00 | 0.00 | 51 | 1025.2 |
| 20260904115502 | 62 | 360 | 1.0 | 7.0 | 0.00 | 0.00 | 0.00 | 51 | 1024.9 |
| 20260904114503 | 62 | 360 | 0.0 | 0.0 | 0.00 | 0.00 | 0.00 | 50 | 1025.2 |
| 20260904113504 | 62 | 360 | 0.0 | 8.0 | 0.00 | 0.00 | 0.00 | 50 | 1025.1 |
| 20260904112502 | 62 | 360 | 0.0 | 10.0 | 0.00 | 0.00 | 0.00 | 49 | 1025.1 |
| 20260904111503 | 62 | 360 | 1.0 | 8.0 | 0.00 | 0.00 | 0.00 | 50 | 1024.9 |
| 20260904110504 | 63 | 360 | 2.0 | 6.0 | 0.00 | 0.00 | 0.00 | 48 | 1025.1 |
| 20260904105502 | 63 | 160 | 0.0 | 9.0 | 0.00 | 0.00 | 0.00 | 48 | 1025.1 |
| 20260904104503 | 64 | 360 | 4.0 | 10.0 | 0.00 | 0.00 | 0.00 | 47 | 1025.1 |
| 20260904103503 | 64 | 360 | 0.0 | 4.0 | 0.00 | 0.00 | 0.00 | 47 | 1024.8 |
| 20260904102502 | 65 | 360 | 1.0 | 8.0 | 0.00 | 0.00 | 0.00 | 45 | 1024.9 |
| 20260904101503 | 65 | 350 | 2.0 | 8.0 | 0.00 | 0.00 | 0.00 | 44 | 1024.8 |
| 20260904100503 | 65 | 360 | 4.0 | 8.0 | 0.00 | 0.00 | 0.00 | 44 | 1024.8 |
| 20260904095504 | 66 | 360 | 2.0 | 9.0 | 0.00 | 0.00 | 0.00 | 44 | 1024.7 |
| 20260904093402 | 66 | 145 | 3.0 | 10.0 | 0.00 | 0.00 | 0.00 | 43 | 1024.7 |
| 20260904092403 | 66 | 152 | 0.0 | 10.0 | 0.00 | 0.00 | 0.00 | 42 | 1024.5 |
| 20260904091403 | 66 | 360 | 0.0 | 10.0 | 0.00 | 0.00 | 0.00 | 42 | 1024.5 |
| 20260904090402 | 66 | 333 | 4.0 | 14.0 | 0.00 | 0.00 | 0.00 | 41 | 1024.5 |
| 20260904084303 | 66 | 140 | 6.0 | 10.0 | 0.00 | 0.00 | 0.00 | 41 | 1024.5 |
| 20260904083303 | 65 | 360 | 1.0 | 10.0 | 0.00 | 0.00 | 0.00 | 41 | 1024.7 |
| 20260904082306 | 65 | 360 | 5.0 | 9.0 | 0.00 | 0.00 | 0.00 | 40 | 1024.7 |
| 20260904081304 | 65 | 164 | 3.0 | 9.0 | 0.00 | 0.00 | 0.00 | 40 | 1024.7 |
| 20260904080303 | 65 | 112 | 4.0 | 10.0 | 0.00 | 0.00 | 0.00 | 40 | 1024.7 |
| 20260904075306 | 65 | 137 | 4.0 | 10.0 | 0.00 | 0.00 | 0.00 | 39 | 1025.1 |
| 20260904074304 | 65 | 75 | 6.0 | 12.0 | 0.00 | 0.00 | 0.00 | 39 | 1024.9 |
| 20260904073303 | 65 | 188 | 4.0 | 12.0 | 0.00 | 0.00 | 0.00 | 39 | 1024.8 |
| 20260904065103 | 65 | 174 | 4.0 | 11.0 | 0.00 | 0.00 | 0.00 | 39 | 1024.7 |
| 20260904064105 | 65 | 360 | 6.0 | 10.0 | 0.00 | 0.00 | 0.00 | 39 | 1024.8 |
| 20260904063102 | 64 | 175 | 2.0 | 10.0 | 0.00 | 0.00 | 0.00 | 40 | 1024.7 |
| 20260904062103 | 64 | 178 | 5.0 | 9.0 | 0.00 | 0.00 | 0.00 | 40 | 1024.8 |
| 20260904061104 | 64 | 203 | 4.0 | 10.0 | 0.00 | 0.00 | 0.00 | 40 | 1024.7 |
| 20260904060105 | 64 | 360 | 2.0 | 8.0 | 0.00 | 0.00 | 0.00 | 41 | 1024.9 |
| 20260904054003 | 64 | 360 | 0.0 | 5.0 | 0.00 | 0.00 | 0.00 | 40 | 1025.1 |
| 20260904053003 | 64 | 360 | 0.0 | 7.0 | 0.00 | 0.00 | 0.00 | 40 | 1025.1 |
| 20260904052004 | 65 | 360 | 3.0 | 9.0 | 0.00 | 0.00 | 0.00 | 39 | 1025.1 |
| 20260904051002 | 65 | 56 | 1.0 | 7.0 | 0.00 | 0.00 | 0.00 | 38 | 1025.1 |
| 20260904044903 | 65 | 360 | 2.0 | 9.0 | 0.00 | 0.00 | 0.00 | 37 | 1025.1 |
| 20260904043904 | 66 | 133 | 3.0 | 9.0 | 0.00 | 0.00 | 0.00 | 37 | 1025.2 |
| 20260904041804 | 66 | 179 | 2.0 | 9.0 | 0.00 | 0.00 | 0.00 | 36 | 1025.3 |
| 20260904035704 | 67 | 202 | 3.0 | 7.0 | 0.00 | 0.00 | 0.00 | 34 | 1025.3 |
| 20260904034702 | 67 | 360 | 4.0 | 10.0 | 0.00 | 0.00 | 0.00 | 34 | 1025.2 |
| 20260904033703 | 68 | 188 | 4.0 | 10.0 | 0.00 | 0.00 | 0.00 | 33 | 1025.2 |
| 20260904032704 | 68 | 109 | 3.0 | 12.0 | 0.00 | 0.00 | 0.00 | 32 | 1025.2 |
| 20260904030604 | 68 | 360 | 4.0 | 10.0 | 0.00 | 0.00 | 0.00 | 31 | 1025.1 |
| 20260904025603 | 69 | 184 | 4.0 | 11.0 | 0.00 | 0.00 | 0.00 | 31 | 1025.1 |
| 20260904024603 | 69 | 360 | 3.0 | 12.0 | 0.00 | 0.00 | 0.00 | 30 | 1024.9 |
| 20260904023604 | 70 | 360 | 2.0 | 10.0 | 0.00 | 0.00 | 0.00 | 29 | 1024.7 |
| 20260904021503 | 71 | 360 | 2.0 | 8.0 | 0.00 | 0.00 | 0.00 | 28 | 1024.3 |
| 20260904020504 | 71 | 360 | 3.0 | 10.0 | 0.00 | 0.00 | 0.00 | 27 | 1024.1 |
| 20260904015504 | 71 | 85 | 4.0 | 10.0 | 0.00 | 0.00 | 0.00 | 26 | 1024.1 |
| 20260904014502 | 72 | 360 | 1.0 | 13.0 | 0.00 | 0.00 | 0.00 | 25 | 1024.1 |
| 20260904013503 | 72 | 360 | 5.0 | 9.0 | 0.00 | 0.00 | 0.00 | 25 | 1024.0 |
| 20260904012503 | 73 | 360 | 4.0 | 9.0 | 0.00 | 0.00 | 0.00 | 24 | 1023.7 |
| 20260904011503 | 73 | 121 | 5.0 | 10.0 | 0.00 | 0.00 | 0.00 | 23 | 1023.7 |
| 20260904010504 | 74 | 360 | 3.0 | 10.0 | 0.00 | 0.00 | 0.00 | 23 | 1023.6 |
| 20260904005504 | 75 | 195 | 1.0 | 10.0 | 0.00 | 0.00 | 0.00 | 22 | 1023.6 |
| 20260904004503 | 75 | 69 | 3.0 | 9.0 | 0.00 | 0.00 | 0.00 | 21 | 1023.5 |
| 20260904003503 | 76 | 61 | 2.0 | 9.0 | 0.00 | 0.00 | 0.00 | 20 | 1023.5 |
| 20260904002503 | 77 | 31 | 2.0 | 10.0 | 0.00 | 0.00 | 0.00 | 18 | 1023.5 |
| 20260904001503 | 79 | 54 | 1.0 | 10.0 | 0.00 | 0.00 | 0.00 | 17 | 1023.6 |
| 20260904000504 | 80 | 360 | 3.0 | 13.0 | 0.00 | 0.00 | 0.00 | 16 | 1023.6 |
| 20260903235504 | 80 | 360 | 6.0 | 10.0 | 0.00 | 0.00 | 0.00 | 16 | 1023.5 |
| 20260903234503 | 81 | 360 | 3.0 | 10.0 | 0.00 | 0.00 | 0.00 | 15 | 1023.5 |
| 20260903232404 | 81 | 75 | 5.0 | 9.0 | 0.00 | 0.00 | 0.00 | 14 | 1023.2 |
| 20260903231403 | 82 | 112 | 2.0 | 10.0 | 0.00 | 0.00 | 0.00 | 14 | 1023.2 |
| 20260903230403 | 81 | 165 | 0.0 | 9.0 | 0.00 | 0.00 | 0.00 | 14 | 1023.3 |
| 20260903225403 | 81 | 71 | 3.0 | 10.0 | 0.00 | 0.00 | 0.00 | 14 | 1023.5 |
| 20260903224403 | 82 | 360 | 6.0 | 10.0 | 0.00 | 0.00 | 0.00 | 14 | 1023.5 |
| 20260903223404 | 82 | 222 | 3.0 | 13.0 | 0.00 | 0.00 | 0.00 | 14 | 1023.6 |
| 20260903221303 | 81 | 11 | 4.0 | 8.0 | 0.00 | 0.00 | 0.00 | 15 | 1023.6 |
| 20260903220307 | 81 | 360 | 4.0 | 12.0 | 0.00 | 0.00 | 0.00 | 16 | 1023.7 |
| 20260903215306 | 81 | 126 | 4.0 | 11.0 | 0.00 | 0.00 | 0.00 | 16 | 1023.9 |
| 20260903213204 | 81 | 47 | 3.0 | 13.0 | 0.00 | 0.00 | 0.00 | 16 | 1024.0 |
| 20260903212204 | 80 | 151 | 5.0 | 10.0 | 0.00 | 0.00 | 0.00 | 17 | 1024.1 |
| 20260903211202 | 80 | 92 | 2.0 | 9.0 | 0.00 | 0.00 | 0.00 | 17 | 1024.1 |
| 20260903210202 | 80 | 168 | 3.0 | 10.0 | 0.00 | 0.00 | 0.00 | 18 | 1024.4 |
| 20260903205203 | 80 | 360 | 0.0 | 10.0 | 0.00 | 0.00 | 0.00 | 17 | 1024.4 |
| 20260903204203 | 80 | 360 | 0.0 | 10.0 | 0.00 | 0.00 | 0.00 | 18 | 1024.4 |
| 20260903203206 | 79 | 360 | 4.0 | 8.0 | 0.00 | 0.00 | 0.00 | 18 | 1024.5 |
| 20260903202204 | 79 | 360 | 0.0 | 10.0 | 0.00 | 0.00 | 0.00 | 19 | 1024.5 |
| 20260903200103 | 78 | 360 | 3.0 | 10.0 | 0.00 | 0.00 | 0.00 | 19 | 1024.9 |
| 20260903195104 | 77 | 360 | 5.0 | 14.0 | 0.00 | 0.00 | 0.00 | 19 | 1024.9 |
| 20260903194102 | 77 | 360 | 3.0 | 13.0 | 0.00 | 0.00 | 0.00 | 17 | 1025.1 |
| 20260903193103 | 78 | 360 | 4.0 | 10.0 | 0.00 | 0.00 | 0.00 | 17 | 1025.2 |
| 20260903192103 | 78 | 117 | 3.0 | 9.0 | 0.00 | 0.00 | 0.00 | 17 | 1025.2 |
| 20260903191103 | 78 | 14 | 3.0 | 9.0 | 0.00 | 0.00 | 0.00 | 16 | 1025.3 |
| 20260903185003 | 77 | 24 | 1.0 | 3.0 | 0.00 | 0.00 | 0.00 | 16 | 1025.5 |
| 20260903184003 | 77 | 34 | 5.0 | 8.0 | 0.00 | 0.00 | 0.00 | 16 | 1025.5 |
| 20260903183004 | 76 | 182 | 3.0 | 9.0 | 0.00 | 0.00 | 0.00 | 19 | 1025.7 |
| 20260903182004 | 76 | 27 | 2.0 | 9.0 | 0.00 | 0.00 | 0.00 | 19 | 1025.9 |
| 20260903181005 | 75 | 110 | 0.0 | 9.0 | 0.00 | 0.00 | 0.00 | 20 | 1026.1 |
| 20260903180003 | 75 | 158 | 3.0 | 4.0 | 0.00 | 0.00 | 0.00 | 20 | 1026.4 |
| 20260903175003 | 74 | 88 | 0.0 | 8.0 | 0.00 | 0.00 | 0.00 | 19 | 1026.7 |
| 20260903174003 | 74 | 4 | 2.0 | 8.0 | 0.00 | 0.00 | 0.00 | 19 | 1026.7 |
| 20260903165704 | 73 | 18 | 1.0 | 10.0 | 0.00 | 0.00 | 0.00 | 24 | 1026.8 |
| 20260903164704 | 72 | 360 | 1.0 | 8.0 | 0.00 | 0.00 | 0.00 | 27 | 1026.7 |